"read_dt","SO2 (ppb)","flags","PMT voltage (V)","lamp voltage (V)","lamp intensity (Hz)","internal temp (C)","react chamber temp (C)","sample flow (l/min)","pres (mmHg)","SO2 bkg (ppb)","SO2 coefficient"
2014-01-15 00:00:00,5932E-4,5C000000,-0724,0979,10664,027.1,045.3,0.396,745.4,01.17,0.508
2014-01-15 00:01:00,6304E-4,5C000000,-0724,0980,10732,027.1,045.3,0.396,745.5,01.17,0.508
2014-01-15 00:02:00,5589E-4,5C000000,-0724,0981,10600,027.1,045.3,0.396,745.4,01.17,0.508
2014-01-15 00:03:00,5737E-4,5C000000,-0724,0980,10672,027.1,045.3,0.396,745.5,01.17,0.508
2014-01-15 00:04:00,5889E-4,5C000000,-0724,0980,10762,027.1,045.3,0.396,745.3,01.17,0.508
2014-01-15 00:05:00,6442E-4,5C000000,-0724,0981,10436,027.1,045.3,0.396,745.5,01.17,0.508
2014-01-15 00:06:00,5838E-4,5C000000,-0724,0980,10659,027.1,045.3,0.396,745.5,01.17,0.508
2014-01-15 00:07:00,6237E-4,5C000000,-0724,0980,10618,027.1,045.3,0.396,745.6,01.17,0.508
2014-01-15 00:08:00,6740E-4,5C000000,-0724,0979,10536,027.1,045.3,0.396,745.6,01.17,0.508
2014-01-15 00:09:00,6057E-4,5C000000,-0724,0979,10760,027.1,045.3,0.396,745.5,01.17,0.508
2014-01-15 00:10:00,5809E-4,5C000000,-0724,0980,10803,027.1,045.3,0.396,745.5,01.17,0.508
2014-01-15 00:11:00,6991E-4,5C000000,-0724,0979,10705,027.1,045.3,0.396,745.5,01.17,0.508
2014-01-15 00:12:00,6475E-4,5C000000,-0724,0979,10854,027.1,045.3,0.396,745.5,01.17,0.508
2014-01-15 00:13:00,6187E-4,5C000000,-0724,0980,10737,027.1,045.3,0.396,745.7,01.17,0.508
2014-01-15 00:14:00,6048E-4,5C000000,-0724,0979,10719,027.1,045.3,0.396,745.8,01.17,0.508
2014-01-15 00:15:00,5665E-4,5C000000,-0724,0979,10651,027.1,045.3,0.396,745.6,01.17,0.508
2014-01-15 00:16:00,6334E-4,5C000000,-0724,0979,10701,027.1,045.3,0.397,745.7,01.17,0.508
2014-01-15 00:17:00,5915E-4,5C000000,-0724,0979,10624,027.1,045.3,0.397,745.6,01.17,0.508
2014-01-15 00:18:00,5570E-4,5C000000,-0724,0980,10870,027.1,045.3,0.397,745.7,01.17,0.508
2014-01-15 00:19:00,6023E-4,5C000000,-0724,0979,10770,027.1,045.3,0.396,745.7,01.17,0.508
2014-01-15 00:20:00,6152E-4,5C000000,-0724,0980,10720,027.1,045.3,0.396,745.6,01.17,0.508
2014-01-15 00:21:00,5515E-4,5C000000,-0724,0979,10765,027.1,045.3,0.396,745.8,01.17,0.508
2014-01-15 00:22:00,5571E-4,5C000000,-0724,0981,10858,027.1,045.3,0.396,745.8,01.17,0.508
2014-01-15 00:23:00,5600E-4,5C000000,-0724,0980,10680,027.1,045.3,0.397,745.8,01.17,0.508
2014-01-15 00:24:00,6054E-4,5C000000,-0724,0979,10694,027.1,045.3,0.397,745.8,01.17,0.508
2014-01-15 00:25:00,6676E-4,5C000000,-0724,0979,10659,027.1,045.3,0.396,745.8,01.17,0.508
2014-01-15 00:26:00,5547E-4,5C000000,-0724,0979,10709,027.1,045.3,0.396,745.9,01.17,0.508
2014-01-15 00:27:00,6452E-4,5C000000,-0724,0979,10701,027.1,045.3,0.396,745.8,01.17,0.508
2014-01-15 00:28:00,6527E-4,5C000000,-0724,0979,10636,027.1,045.3,0.397,745.8,01.17,0.508
2014-01-15 00:29:00,6345E-4,5C000000,-0724,0979,10807,027.0,045.3,0.397,745.9,01.17,0.508
2014-01-15 00:30:00,5949E-4,5C000000,-0724,0978,10558,027.1,045.3,0.396,745.9,01.17,0.508
2014-01-15 00:31:00,5858E-4,5C000000,-0724,0979,10572,027.1,045.3,0.397,746.0,01.17,0.508
2014-01-15 00:32:00,5853E-4,5C000000,-0724,0979,10822,027.1,045.3,0.397,746.0,01.17,0.508
2014-01-15 00:33:00,5427E-4,5C000000,-0724,0980,10824,027.1,045.3,0.397,746.0,01.17,0.508
2014-01-15 00:34:00,6252E-4,5C000000,-0724,0980,10870,027.1,045.3,0.396,746.0,01.17,0.508
2014-01-15 00:35:00,5847E-4,5C000000,-0724,0979,10809,027.1,045.3,0.396,745.8,01.17,0.508
2014-01-15 00:36:00,6953E-4,5C000000,-0724,0979,10801,027.1,045.3,0.396,745.9,01.17,0.508
2014-01-15 00:37:00,6431E-4,5C000000,-0724,0979,10596,027.1,045.3,0.397,745.9,01.17,0.508
2014-01-15 00:38:00,6643E-4,5C000000,-0724,0980,10711,027.1,045.3,0.397,745.9,01.17,0.508
2014-01-15 00:39:00,6927E-4,5C000000,-0724,0979,10747,027.1,045.3,0.396,745.8,01.17,0.508
2014-01-15 00:40:00,7678E-4,5C000000,-0724,0979,10622,027.1,045.3,0.396,745.8,01.17,0.508
2014-01-15 00:41:00,6149E-4,5C000000,-0724,0979,10814,027.1,045.3,0.396,745.8,01.17,0.508
2014-01-15 00:42:00,6202E-4,5C000000,-0724,0979,10731,027.1,045.3,0.396,745.8,01.17,0.508
2014-01-15 00:43:00,6575E-4,5C000000,-0724,0979,10772,027.1,045.3,0.396,745.8,01.17,0.508
2014-01-15 00:44:00,6727E-4,5C000000,-0724,0979,10824,027.1,045.3,0.397,745.8,01.17,0.508
2014-01-15 00:45:00,6487E-4,5C000000,-0724,0979,10750,027.1,045.3,0.396,745.7,01.17,0.508
2014-01-15 00:46:00,7318E-4,5C000000,-0724,0980,10706,027.1,045.3,0.396,745.6,01.17,0.508
2014-01-15 00:47:00,6433E-4,5C000000,-0724,0979,10699,027.1,045.3,0.396,745.5,01.17,0.508
2014-01-15 00:48:00,5792E-4,5C000000,-0724,0980,10809,027.1,045.3,0.396,745.3,01.17,0.508
2014-01-15 00:49:00,7323E-4,5C000000,-0724,0980,10754,027.1,045.3,0.396,745.5,01.17,0.508
2014-01-15 00:50:00,5703E-4,5C000000,-0724,0979,10631,027.1,045.3,0.396,745.4,01.17,0.508
2014-01-15 00:51:00,6776E-4,5C000000,-0724,0980,10847,027.1,045.3,0.396,745.5,01.17,0.508
2014-01-15 00:52:00,8013E-4,5C000000,-0724,0980,10706,027.1,045.3,0.396,745.4,01.17,0.508
2014-01-15 00:53:00,6868E-4,5C000000,-0724,0980,10504,027.1,045.3,0.396,745.3,01.17,0.508
2014-01-15 00:54:00,5533E-4,5C000000,-0724,0980,10770,027.1,045.3,0.396,745.4,01.17,0.508
2014-01-15 00:55:00,6265E-4,5C000000,-0724,0979,10744,027.1,045.3,0.396,745.5,01.17,0.508
2014-01-15 00:56:00,7246E-4,5C000000,-0724,0980,10873,027.1,045.3,0.396,745.5,01.17,0.508
2014-01-15 00:57:00,6761E-4,5C000000,-0724,0979,10618,027.1,045.3,0.396,745.4,01.17,0.508
2014-01-15 00:58:00,7032E-4,5C000000,-0724,0979,10806,027.1,045.3,0.396,745.4,01.17,0.508
2014-01-15 00:59:00,5481E-4,5C000000,-0724,0979,10835,027.0,045.3,0.397,745.6,01.17,0.508
2014-01-15 01:00:00,7276E-4,5C000000,-0724,0979,10883,027.1,045.3,0.397,745.5,01.17,0.508
2014-01-15 01:01:00,7333E-4,5C000000,-0724,0979,10708,027.0,045.3,0.396,745.5,01.17,0.508
2014-01-15 01:02:00,5872E-4,5C000000,-0724,0980,10791,027.0,045.3,0.396,745.5,01.17,0.508
2014-01-15 01:03:00,6223E-4,5C000000,-0724,0979,10690,027.0,045.3,0.396,745.5,01.17,0.508
2014-01-15 01:04:00,6358E-4,5C000000,-0724,0980,10724,027.0,045.3,0.396,745.5,01.17,0.508
2014-01-15 01:05:00,6999E-4,5C000000,-0724,0979,10794,027.0,045.3,0.396,745.6,01.17,0.508
2014-01-15 01:06:00,6319E-4,5C000000,-0724,0979,10665,027.0,045.3,0.397,745.6,01.17,0.508
2014-01-15 01:07:00,8013E-4,5C000000,-0724,0979,10787,027.0,045.3,0.397,745.7,01.17,0.508
2014-01-15 01:08:00,7268E-4,5C000000,-0724,0979,10818,027.0,045.3,0.396,745.8,01.17,0.508
2014-01-15 01:09:00,7085E-4,5C000000,-0724,0979,10762,027.0,045.3,0.396,745.8,01.17,0.508
2014-01-15 01:10:00,6333E-4,5C000000,-0724,0979,10676,027.0,045.3,0.396,745.6,01.17,0.508
2014-01-15 01:11:00,6813E-4,5C000000,-0724,0979,10743,027.0,045.3,0.397,745.7,01.17,0.508
2014-01-15 01:12:00,6895E-4,5C000000,-0724,0978,10765,027.0,045.3,0.397,745.5,01.17,0.508
2014-01-15 01:13:00,6225E-4,5C000000,-0724,0979,10762,027.0,045.3,0.397,745.5,01.17,0.508
2014-01-15 01:14:00,7259E-4,5C000000,-0724,0978,10576,027.0,045.3,0.396,745.1,01.17,0.508
2014-01-15 01:15:00,6953E-4,5C000000,-0724,0978,10740,027.0,045.3,0.396,745.2,01.17,0.508
2014-01-15 01:16:00,5942E-4,5C000000,-0724,0979,10638,027.0,045.3,0.396,745.0,01.17,0.508
2014-01-15 01:17:00,5254E-4,5C000000,-0724,0980,10626,027.0,045.3,0.396,744.8,01.17,0.508
2014-01-15 01:18:00,5718E-4,5C000000,-0724,0978,10725,027.0,045.3,0.397,745.2,01.17,0.508
2014-01-15 01:19:00,7150E-4,5C000000,-0724,0980,10823,027.0,045.3,0.396,745.1,01.17,0.508
2014-01-15 01:20:00,6484E-4,5C000000,-0724,0979,10657,027.0,045.3,0.396,745.4,01.17,0.508
2014-01-15 01:21:00,6713E-4,5C000000,-0724,0978,10749,027.0,045.3,0.396,745.4,01.17,0.508
2014-01-15 01:22:00,5777E-4,5C000000,-0724,0978,10769,027.0,045.3,0.397,745.5,01.17,0.508
2014-01-15 01:23:00,6301E-4,5C000000,-0724,0979,10759,027.0,045.3,0.397,745.5,01.17,0.508
2014-01-15 01:24:00,6966E-4,5C000000,-0724,0978,10601,027.0,045.3,0.396,745.6,01.17,0.508
2014-01-15 01:25:00,6262E-4,5C000000,-0724,0979,10722,026.9,045.3,0.396,745.5,01.17,0.508
2014-01-15 01:26:00,7553E-4,5C000000,-0724,0979,10587,026.9,045.3,0.396,745.6,01.17,0.508
2014-01-15 01:27:00,7313E-4,5C000000,-0724,0979,10723,027.0,045.3,0.397,745.6,01.17,0.508
2014-01-15 01:28:00,6825E-4,5C000000,-0724,0979,10739,027.0,045.3,0.397,745.6,01.17,0.508
2014-01-15 01:29:00,6415E-4,5C000000,-0724,0979,10569,027.0,045.3,0.396,745.5,01.17,0.508
2014-01-15 01:30:00,6898E-4,5C000000,-0724,0979,10708,027.0,045.3,0.396,745.5,01.17,0.508
2014-01-15 01:31:00,6326E-4,5C000000,-0724,0978,10818,027.0,045.3,0.396,745.4,01.17,0.508
2014-01-15 01:32:00,6424E-4,5C000000,-0724,0978,10685,027.0,045.3,0.396,745.5,01.17,0.508
2014-01-15 01:33:00,6970E-4,5C000000,-0724,0979,10863,027.0,045.3,0.396,745.4,01.17,0.508
2014-01-15 01:34:00,7905E-4,5C000000,-0724,0980,10851,027.0,045.3,0.397,745.4,01.17,0.508
2014-01-15 01:35:00,7511E-4,5C000000,-0724,0979,10618,027.0,045.3,0.397,745.5,01.17,0.508
2014-01-15 01:36:00,6059E-4,5C000000,-0724,0979,10798,026.9,045.3,0.396,745.5,01.17,0.508
2014-01-15 01:37:00,7074E-4,5C000000,-0724,0979,10771,027.0,045.3,0.396,745.3,01.17,0.508
2014-01-15 01:38:00,6907E-4,5C000000,-0724,0978,10668,027.0,045.3,0.396,745.3,01.17,0.508
2014-01-15 01:39:00,6271E-4,5C000000,-0724,0980,10681,027.0,045.3,0.396,745.4,01.17,0.508
2014-01-15 01:40:00,6342E-4,5C000000,-0724,0979,10693,027.0,045.3,0.397,745.2,01.17,0.508
2014-01-15 01:41:00,7002E-4,5C000000,-0724,0980,10766,027.0,045.3,0.396,745.2,01.17,0.508
2014-01-15 01:42:00,6666E-4,5C000000,-0724,0979,10747,027.0,045.3,0.396,745.3,01.17,0.508
2014-01-15 01:43:00,6627E-4,5C000000,-0724,0979,10636,027.0,045.3,0.396,745.4,01.17,0.508
2014-01-15 01:44:00,8079E-4,5C000000,-0724,0979,10590,026.9,045.3,0.396,745.2,01.17,0.508
2014-01-15 01:45:00,6605E-4,5C000000,-0724,0978,10716,027.0,045.3,0.396,745.5,01.17,0.508
2014-01-15 01:46:00,5500E-4,5C000000,-0724,0979,10745,027.0,045.3,0.396,745.3,01.17,0.508
2014-01-15 01:47:00,6532E-4,5C000000,-0724,0980,10674,026.9,045.3,0.397,745.3,01.17,0.508
2014-01-15 01:48:00,8203E-4,5C000000,-0724,0980,10800,027.0,045.3,0.396,745.1,01.17,0.508
2014-01-15 01:49:00,6910E-4,5C000000,-0724,0979,10660,027.0,045.3,0.396,745.3,01.17,0.508
2014-01-15 01:50:00,6862E-4,5C000000,-0724,0979,10736,027.0,045.3,0.396,745.2,01.17,0.508
2014-01-15 01:51:00,6573E-4,5C000000,-0724,0979,10760,027.0,045.3,0.396,745.3,01.17,0.508
2014-01-15 01:52:00,6516E-4,5C000000,-0724,0979,10715,026.9,045.3,0.396,745.2,01.17,0.508
2014-01-15 01:53:00,7357E-4,5C000000,-0724,0979,10765,026.9,045.3,0.396,745.2,01.17,0.508
2014-01-15 01:54:00,7220E-4,5C000000,-0724,0979,10763,026.9,045.3,0.396,745.0,01.17,0.508
2014-01-15 01:55:00,6608E-4,5C000000,-0724,0979,10681,026.9,045.3,0.397,745.2,01.17,0.508
2014-01-15 01:56:00,7102E-4,5C000000,-0724,0979,10584,026.9,045.3,0.397,745.2,01.17,0.508
2014-01-15 01:57:00,6931E-4,5C000000,-0724,0979,10505,026.9,045.3,0.396,745.2,01.17,0.508
2014-01-15 01:58:00,7301E-4,5C000000,-0724,0978,10665,026.9,045.3,0.396,745.3,01.17,0.508
2014-01-15 01:59:00,6771E-4,5C000000,-0724,0979,10760,026.9,045.3,0.396,745.2,01.17,0.508
2014-01-15 02:00:00,6167E-4,5C000000,-0724,0979,10720,026.9,045.3,0.396,745.2,01.17,0.508
2014-01-15 02:01:00,7738E-4,5C000000,-0724,0979,10601,026.9,045.3,0.396,745.1,01.17,0.508
2014-01-15 02:02:00,7206E-4,5C000000,-0724,0979,10770,026.9,045.3,0.396,745.0,01.17,0.508
2014-01-15 02:03:00,7824E-4,5C000000,-0724,0979,10776,026.9,045.3,0.397,745.1,01.17,0.508
2014-01-15 02:04:00,7253E-4,5C000000,-0724,0979,10761,026.9,045.3,0.396,745.1,01.17,0.508
2014-01-15 02:05:00,6078E-4,5C000000,-0724,0979,10821,026.9,045.3,0.396,745.0,01.17,0.508
2014-01-15 02:06:00,5786E-4,5C000000,-0724,0979,10658,026.9,045.3,0.396,745.0,01.17,0.508
2014-01-15 02:07:00,6407E-4,5C000000,-0724,0979,10718,026.9,045.3,0.396,745.0,01.17,0.508
2014-01-15 02:08:00,7298E-4,5C000000,-0724,0979,10764,026.9,045.3,0.396,745.0,01.17,0.508
2014-01-15 02:09:00,7215E-4,5C000000,-0724,0978,10662,026.9,045.3,0.397,744.8,01.17,0.508
2014-01-15 02:10:00,6994E-4,5C000000,-0724,0978,10755,026.9,045.3,0.396,745.1,01.17,0.508
2014-01-15 02:11:00,7557E-4,5C000000,-0724,0979,10789,026.8,045.3,0.396,745.2,01.17,0.508
2014-01-15 02:12:00,6634E-4,5C000000,-0724,0978,10701,026.8,045.3,0.396,745.3,01.17,0.508
2014-01-15 02:13:00,6788E-4,5C000000,-0724,0978,10861,026.8,045.3,0.396,745.3,01.17,0.508
2014-01-15 02:14:00,6762E-4,5C000000,-0724,0978,10755,026.8,045.3,0.397,745.2,01.17,0.508
2014-01-15 02:15:00,6760E-4,5C000000,-0724,0978,10677,026.8,045.3,0.397,745.3,01.17,0.508
2014-01-15 02:16:00,5921E-4,5C000000,-0724,0980,10791,026.8,045.3,0.396,745.2,01.17,0.508
2014-01-15 02:17:00,6739E-4,5C000000,-0724,0978,10766,026.8,045.3,0.396,745.2,01.17,0.508
2014-01-15 02:18:00,5937E-4,5C000000,-0724,0979,10759,026.8,045.3,0.396,745.1,01.17,0.508
2014-01-15 02:19:00,6646E-4,5C000000,-0724,0979,10741,026.8,045.3,0.397,745.1,01.17,0.508
2014-01-15 02:20:00,6712E-4,5C000000,-0724,0979,10854,026.8,045.3,0.397,745.0,01.17,0.508
2014-01-15 02:21:00,7241E-4,5C000000,-0724,0980,10740,026.8,045.3,0.397,745.0,01.17,0.508
2014-01-15 02:22:00,8052E-4,5C000000,-0724,0979,10670,026.8,045.3,0.396,744.8,01.17,0.508
2014-01-15 02:23:00,7233E-4,5C000000,-0724,0979,10760,026.8,045.3,0.396,744.9,01.17,0.508
2014-01-15 02:24:00,7003E-4,5C000000,-0724,0979,10825,026.8,045.3,0.396,744.8,01.17,0.508
2014-01-15 02:25:00,7022E-4,5C000000,-0724,0978,10729,026.7,045.3,0.397,745.0,01.17,0.508
2014-01-15 02:26:00,7745E-4,5C000000,-0724,0978,10851,026.7,045.3,0.397,744.9,01.17,0.508
2014-01-15 02:27:00,6329E-4,5C000000,-0724,0980,10833,026.7,045.3,0.397,745.1,01.17,0.508
2014-01-15 02:28:00,7868E-4,5C000000,-0724,0979,10752,026.7,045.3,0.396,745.2,01.17,0.508
2014-01-15 02:29:00,6681E-4,5C000000,-0724,0979,10714,026.7,045.3,0.396,745.2,01.17,0.508
2014-01-15 02:30:00,6537E-4,5C000000,-0724,0979,10835,026.7,045.3,0.397,745.2,01.17,0.508
2014-01-15 02:31:00,6950E-4,5C000000,-0724,0978,10700,026.7,045.3,0.397,745.3,01.17,0.508
2014-01-15 02:32:00,6528E-4,5C000000,-0724,0979,10699,026.7,045.3,0.397,745.2,01.17,0.508
2014-01-15 02:33:00,6519E-4,5C000000,-0724,0979,10785,026.7,045.3,0.396,745.2,01.17,0.508
2014-01-15 02:34:00,7312E-4,5C000000,-0724,0979,10780,026.7,045.3,0.397,745.3,01.17,0.508
2014-01-15 02:35:00,7943E-4,5C000000,-0724,0978,10729,026.7,045.3,0.397,745.4,01.17,0.508
2014-01-15 02:36:00,7373E-4,5C000000,-0724,0979,10424,026.7,045.3,0.397,745.5,01.17,0.508
2014-01-15 02:37:00,7220E-4,5C000000,-0724,0978,10861,026.7,045.3,0.397,745.2,01.17,0.508
2014-01-15 02:38:00,7206E-4,5C000000,-0724,0979,10625,026.6,045.3,0.397,745.3,01.17,0.508
2014-01-15 02:39:00,5948E-4,5C000000,-0724,0979,10734,026.6,045.3,0.397,745.5,01.17,0.508
2014-01-15 02:40:00,6673E-4,5C000000,-0724,0978,10797,026.6,045.3,0.397,745.5,01.17,0.508
2014-01-15 02:41:00,6186E-4,5C000000,-0724,0978,10784,026.6,045.3,0.397,745.4,01.17,0.508
2014-01-15 02:42:00,6668E-4,5C000000,-0724,0978,10836,026.6,045.3,0.397,745.5,01.17,0.508
2014-01-15 02:43:00,6848E-4,5C000000,-0724,0978,10803,026.6,045.3,0.397,745.5,01.17,0.508
2014-01-15 02:44:00,5710E-4,5C000000,-0724,0978,10701,026.6,045.3,0.397,745.6,01.17,0.508
2014-01-15 02:45:00,7536E-4,5C000000,-0724,0978,10848,026.6,045.3,0.397,745.5,01.17,0.508
2014-01-15 02:46:00,7552E-4,5C000000,-0724,0979,10816,026.6,045.3,0.397,745.5,01.17,0.508
2014-01-15 02:47:00,6988E-4,5C000000,-0724,0978,10622,026.6,045.3,0.397,745.4,01.17,0.508
2014-01-15 02:48:00,6772E-4,5C000000,-0724,0978,10608,026.6,045.3,0.397,745.5,01.17,0.508
2014-01-15 02:49:00,6408E-4,5C000000,-0724,0978,10808,026.6,045.3,0.397,745.4,01.17,0.508
2014-01-15 02:50:00,8149E-4,5C000000,-0724,0978,10716,026.6,045.3,0.398,745.5,01.17,0.508
2014-01-15 02:51:00,7503E-4,5C000000,-0724,0978,10771,026.6,045.3,0.397,745.4,01.17,0.508
2014-01-15 02:52:00,6563E-4,5C000000,-0724,0979,10733,026.6,045.3,0.397,745.4,01.17,0.508
2014-01-15 02:53:00,7032E-4,5C000000,-0724,0978,10623,026.6,045.3,0.397,745.4,01.17,0.508
2014-01-15 02:54:00,7405E-4,5C000000,-0724,0979,10801,026.6,045.3,0.397,745.4,01.17,0.508
2014-01-15 02:55:00,7497E-4,5C000000,-0724,0978,10595,026.6,045.3,0.397,745.3,01.17,0.508
2014-01-15 02:56:00,6844E-4,5C000000,-0724,0978,10566,026.6,045.3,0.397,745.3,01.17,0.508
2014-01-15 02:57:00,7798E-4,5C000000,-0724,0978,10812,026.6,045.3,0.397,745.3,01.17,0.508
2014-01-15 02:58:00,7064E-4,5C000000,-0724,0978,10811,026.6,045.3,0.397,745.2,01.17,0.508
2014-01-15 02:59:00,7659E-4,5C000000,-0724,0978,10444,026.6,045.3,0.397,745.2,01.17,0.508
2014-01-15 03:00:00,6896E-4,5C000000,-0724,0979,10781,026.6,045.3,0.397,745.2,01.17,0.508
2014-01-15 03:01:00,7275E-4,5C000000,-0724,0978,10783,026.6,045.3,0.397,745.3,01.17,0.508
2014-01-15 03:02:00,8158E-4,5C000000,-0724,0978,10841,026.6,045.3,0.397,745.3,01.17,0.508
2014-01-15 03:03:00,7823E-4,5C000000,-0724,0979,10756,026.6,045.3,0.397,745.3,01.17,0.508
2014-01-15 03:04:00,7627E-4,5C000000,-0724,0978,10617,026.6,045.3,0.397,745.3,01.17,0.508
2014-01-15 03:05:00,6663E-4,5C000000,-0724,0978,10674,026.5,045.3,0.397,745.2,01.17,0.508
2014-01-15 03:06:00,6999E-4,5C000000,-0724,0979,10741,026.6,045.3,0.397,745.2,01.17,0.508
2014-01-15 03:07:00,7974E-4,5C000000,-0724,0978,10788,026.6,045.3,0.397,745.2,01.17,0.508
2014-01-15 03:08:00,7712E-4,5C000000,-0724,0978,10768,026.6,045.3,0.397,745.0,01.17,0.508
2014-01-15 03:09:00,8349E-4,5C000000,-0724,0979,10749,026.5,045.3,0.397,745.0,01.17,0.508
2014-01-15 03:10:00,7864E-4,5C000000,-0724,0979,10827,026.5,045.3,0.397,745.2,01.17,0.508
2014-01-15 03:11:00,6466E-4,5C000000,-0724,0978,10795,026.5,045.3,0.397,745.1,01.17,0.508
2014-01-15 03:12:00,8405E-4,5C000000,-0724,0978,10621,026.5,045.3,0.397,745.1,01.17,0.508
2014-01-15 03:13:00,7309E-4,5C000000,-0724,0979,10620,026.6,045.3,0.397,745.2,01.17,0.508
2014-01-15 03:14:00,7069E-4,5C000000,-0724,0979,10719,026.6,045.3,0.397,745.1,01.17,0.508
2014-01-15 03:15:00,7401E-4,5C000000,-0724,0978,10797,026.5,045.3,0.397,744.9,01.17,0.508
2014-01-15 03:16:00,6277E-4,5C000000,-0724,0978,10685,026.5,045.3,0.397,745.1,01.17,0.508
2014-01-15 03:17:00,7748E-4,5C000000,-0724,0978,10774,026.5,045.3,0.397,745.0,01.17,0.508
2014-01-15 03:18:00,6969E-4,5C000000,-0724,0978,10656,026.5,045.3,0.397,745.3,01.17,0.508
2014-01-15 03:19:00,7403E-4,5C000000,-0724,0977,10708,026.5,045.3,0.398,745.1,01.17,0.508
2014-01-15 03:20:00,7061E-4,5C000000,-0724,0979,10792,026.5,045.3,0.397,745.2,01.17,0.508
2014-01-15 03:21:00,7642E-4,5C000000,-0724,0978,10765,026.5,045.3,0.397,745.2,01.17,0.508
2014-01-15 03:22:00,7626E-4,5C000000,-0724,0977,10743,026.5,045.3,0.397,745.2,01.17,0.508
2014-01-15 03:23:00,6996E-4,5C000000,-0724,0979,10754,026.5,045.3,0.398,745.2,01.17,0.508
2014-01-15 03:24:00,8406E-4,5C000000,-0724,0978,10663,026.5,045.3,0.397,745.3,01.17,0.508
2014-01-15 03:25:00,6479E-4,5C000000,-0724,0978,10544,026.5,045.3,0.397,745.3,01.17,0.508
2014-01-15 03:26:00,7498E-4,5C000000,-0724,0978,10829,026.5,045.3,0.397,745.4,01.17,0.508
2014-01-15 03:27:00,6876E-4,5C000000,-0724,0978,10722,026.5,045.3,0.398,745.3,01.17,0.508
2014-01-15 03:28:00,6970E-4,5C000000,-0724,0978,10606,026.5,045.3,0.397,745.1,01.17,0.508
2014-01-15 03:29:00,6822E-4,5C000000,-0724,0978,10797,026.5,045.3,0.397,745.3,01.17,0.508
2014-01-15 03:30:00,7856E-4,5C000000,-0724,0978,10756,026.5,045.3,0.398,745.2,01.17,0.508
2014-01-15 03:31:00,7787E-4,5C000000,-0724,0978,10795,026.4,045.3,0.397,745.3,01.17,0.508
2014-01-15 03:32:00,6550E-4,5C000000,-0724,0978,10705,026.4,045.3,0.397,745.1,01.17,0.508
2014-01-15 03:33:00,8711E-4,5C000000,-0724,0978,10774,026.4,045.3,0.397,745.3,01.17,0.508
2014-01-15 03:34:00,7300E-4,5C000000,-0724,0978,10448,026.4,045.3,0.398,745.4,01.17,0.508
2014-01-15 03:35:00,6050E-4,5C000000,-0724,0978,10773,026.4,045.3,0.397,745.2,01.17,0.508
2014-01-15 03:36:00,7515E-4,5C000000,-0724,0979,10791,026.4,045.3,0.397,745.0,01.17,0.508
2014-01-15 03:37:00,8403E-4,5C000000,-0724,0977,10805,026.4,045.3,0.398,745.4,01.17,0.508
2014-01-15 03:38:00,6974E-4,5C000000,-0724,0977,10619,026.4,045.2,0.398,745.3,01.17,0.508
2014-01-15 03:39:00,7568E-4,5C000000,-0724,0978,10745,026.4,045.3,0.397,745.1,01.17,0.508
2014-01-15 03:40:00,6984E-4,5C000000,-0724,0978,10698,026.4,045.3,0.397,745.0,01.17,0.508
2014-01-15 03:41:00,6232E-4,5C000000,-0724,0978,10844,026.4,045.3,0.398,745.1,01.17,0.508
2014-01-15 03:42:00,6570E-4,5C000000,-0724,0979,10781,026.4,045.3,0.397,745.2,01.17,0.508
2014-01-15 03:43:00,5817E-4,5C000000,-0724,0978,10834,026.4,045.3,0.397,745.0,01.17,0.508
2014-01-15 03:44:00,8435E-4,5C000000,-0724,0978,10649,026.4,045.3,0.398,745.0,01.17,0.508
2014-01-15 03:45:00,6774E-4,5C000000,-0724,0979,10661,026.4,045.3,0.397,744.9,01.17,0.508
2014-01-15 03:46:00,6963E-4,5C000000,-0724,0978,10766,026.4,045.2,0.398,745.0,01.17,0.508
2014-01-15 03:47:00,6796E-4,5C000000,-0724,0978,10781,026.4,045.3,0.397,745.0,01.17,0.508
2014-01-15 03:48:00,7113E-4,5C000000,-0724,0977,10705,026.4,045.3,0.397,745.0,01.17,0.508
2014-01-15 03:49:00,6251E-4,5C000000,-0724,0977,10738,026.4,045.3,0.398,744.9,01.17,0.508
2014-01-15 03:50:00,7182E-4,5C000000,-0724,0978,10774,026.4,045.3,0.397,744.7,01.17,0.508
2014-01-15 03:51:00,6355E-4,5C000000,-0724,0977,10693,026.4,045.3,0.397,744.6,01.17,0.508
2014-01-15 03:52:00,7316E-4,5C000000,-0724,0978,10637,026.4,045.3,0.397,744.5,01.17,0.508
2014-01-15 03:53:00,5930E-4,5C000000,-0724,0977,10750,026.4,045.3,0.397,744.3,01.18,0.508
2014-01-15 03:54:00,6130E-4,5C000000,-0724,0977,10710,026.4,045.3,0.397,744.4,01.18,0.508
2014-01-15 03:55:00,5552E-4,5C000000,-0724,0978,10738,026.3,045.3,0.397,744.2,01.18,0.508
2014-01-15 03:56:00,5919E-4,5C000000,-0724,0978,10710,026.4,045.3,0.397,744.3,01.18,0.508
2014-01-15 03:57:00,4992E-4,5C000000,-0724,0978,10614,026.3,045.3,0.397,744.1,01.18,0.508
2014-01-15 03:58:00,6186E-4,5C000000,-0724,0977,10752,026.3,045.3,0.397,743.9,01.18,0.508
2014-01-15 03:59:00,6808E-4,5C000000,-0724,0977,10845,026.3,045.3,0.397,744.0,01.18,0.508
2014-01-15 04:00:00,6414E-4,5C000000,-0724,0978,10811,026.3,045.3,0.397,743.9,01.18,0.508
2014-01-15 04:01:00,6372E-4,5C000000,-0724,0977,10799,026.3,045.3,0.397,743.7,01.18,0.508
2014-01-15 04:02:00,8027E-4,5C000000,-0724,0979,10727,026.3,045.3,0.397,744.1,01.18,0.508
2014-01-15 04:03:00,6110E-4,5C000000,-0724,0978,10822,026.3,045.3,0.397,743.9,01.18,0.508
2014-01-15 04:04:00,6852E-4,5C000000,-0724,0978,10781,026.3,045.3,0.397,744.0,01.18,0.508
2014-01-15 04:05:00,6433E-4,5C000000,-0724,0978,10773,026.3,045.3,0.397,743.6,01.18,0.508
2014-01-15 04:06:00,6220E-4,5C000000,-0724,0978,10594,026.2,045.3,0.397,743.9,01.18,0.508
2014-01-15 04:07:00,5614E-4,5C000000,-0724,0978,10794,026.2,045.3,0.397,743.8,01.18,0.508
2014-01-15 04:08:00,5841E-4,5C000000,-0724,0979,10640,026.2,045.3,0.397,743.9,01.18,0.508
2014-01-15 04:09:00,6279E-4,5C000000,-0724,0978,10724,026.2,045.3,0.397,743.8,01.18,0.508
2014-01-15 04:10:00,6427E-4,5C000000,-0724,0977,10739,026.2,045.2,0.397,743.9,01.18,0.508
2014-01-15 04:11:00,5881E-4,5C000000,-0724,0978,10871,026.1,045.3,0.397,743.7,01.18,0.508
2014-01-15 04:12:00,7130E-4,5C000000,-0724,0976,10825,026.1,045.3,0.397,743.7,01.18,0.508
2014-01-15 04:13:00,4963E-4,5C000000,-0724,0977,10646,026.1,045.3,0.397,743.5,01.18,0.508
2014-01-15 04:14:00,6148E-4,5C000000,-0724,0977,10695,026.1,045.3,0.397,743.4,01.18,0.508
2014-01-15 04:15:00,6170E-4,5C000000,-0724,0978,10770,026.1,045.2,0.397,743.4,01.18,0.508
2014-01-15 04:16:00,6733E-4,5C000000,-0724,0978,10619,026.0,045.3,0.398,743.5,01.18,0.508
2014-01-15 04:17:00,6754E-4,5C000000,-0724,0977,10733,026.0,045.3,0.398,743.8,01.18,0.508
2014-01-15 04:18:00,6470E-4,5C000000,-0724,0977,10843,026.0,045.3,0.397,743.5,01.18,0.508
2014-01-15 04:19:00,6438E-4,5C000000,-0724,0978,10814,026.0,045.3,0.398,743.6,01.18,0.508
2014-01-15 04:20:00,5904E-4,5C000000,-0724,0977,10781,026.0,045.2,0.398,743.4,01.18,0.508